[[{"header":{"parameterUnit":"m.s-1","parameterCategory":1,"la1":30.2991,"la2":30.254,"lo1":-89.0895,"lo2":-89.0444,"dy":0.0017,"dx":0.0017,"nx":28,"ny":28,"refTime":"2024-07-17T09:00:00:Z","depth":0,"parameterNumber":2,"parameterNumberName":"U-component_of_WINDS"},"data":[0,0,0,0,0,0,0,0,0,0,0,0,0,0,0,0,0,0,0,0,0,0,0,0,0,0,0,0,0,0,0,0,0,0,0,0,0,0,0,0,0,0,0,0,0,0,0,0,0,0,0,0,0,0,0,0,0,0,2.8186,2.8187,0,2.8287,2.8288,2.8289,2.8251,2.8249,2.8246,2.8244,2.835,2.8355,2.836,0,0,0,0,0,0,0,0,0,0,0,0,0,2.7959,2.7964,2.8186,2.8187,2.8188,2.8287,2.8288,2.8289,2.8251,2.8249,2.8246,2.8243,2.8348,2.8354,2.836,0,0,0,0,0,0,0,0,0,0,0,0,0,2.8059,2.7965,2.8185,2.8181,2.8182,2.8286,2.8288,2.829,2.8252,2.8249,2.8245,2.8242,2.8346,2.8354,2.8361,2.8477,0,0,2.8384,2.8387,0,0,0,0,0,0,0,0,2.8053,2.8067,2.818,2.8181,2.8182,2.8253,2.8247,2.8352,2.8253,2.8225,2.8244,2.824,2.8321,2.833,2.8357,2.8481,2.8486,2.8384,2.8389,2.8392,2.8394,0,0,0,0,0,0,0,2.8046,2.8063,2.8226,2.8182,2.8183,2.8174,2.8184,2.8267,2.8291,2.8228,2.8225,2.8237,2.832,2.8349,2.8359,2.8488,2.8384,2.8391,2.8395,2.8398,2.8709,2.8712,0,0,0,0,0,0,2.8039,2.8057,2.8222,2.8229,2.8108,2.8181,2.8192,2.8234,2.829,2.8295,2.824,2.8235,2.8338,2.835,2.8362,2.8499,2.8392,2.8399,2.8403,2.8705,2.871,2.8714,0,0,0,0,0,0,2.8034,2.8054,2.8218,2.8142,2.8162,2.8188,2.8235,2.8237,2.8266,2.83,2.8304,2.8265,2.8336,2.8352,2.8447,2.8502,2.8402,2.8409,2.8701,2.8706,2.8712,2.8774,0,0,0,0,0,0,2.8028,2.8053,2.8097,2.8144,2.8167,2.8302,2.8239,2.8242,2.8279,2.8274,2.8325,2.833,2.8335,2.8436,2.8455,2.851,2.8415,2.8696,2.8703,2.871,2.8767,2.8781,2.8793,0,0,0,0,0,2.802,2.8112,2.81,2.812,2.8223,2.8305,2.8318,2.8322,2.8284,2.8328,2.8349,2.8328,2.8493,2.8447,2.8467,2.8526,2.8692,2.8701,2.8709,2.8761,2.8778,2.8793,0,0,0,0,0,0,2.8073,2.8118,2.8105,2.8215,2.8256,2.8299,2.8355,2.834,2.8394,2.8387,2.8389,2.8401,2.8498,2.8522,2.8469,2.8639,2.8587,2.86,2.862,2.8636,2.8649,2.864,2.8421,0,0,0,0,0,2.8097,2.816,2.8196,2.829,2.8311,2.8329,2.8366,2.8364,2.8408,2.8425,2.8454,2.8497,2.8558,2.8599,2.8657,2.8771,2.878,2.8821,2.8834,2.8844,2.8855,2.8913,2.8931,2.8741,2.8741,2.8741,0,0,2.8148,2.8181,2.8221,2.8301,2.8333,2.8397,2.8345,2.8416,2.8464,2.8437,2.8527,2.855,2.8598,2.8702,2.8749,2.8724,2.8909,2.8855,2.8863,2.8868,2.8924,2.8942,2.8958,2.8747,2.8746,2.8745,0,0,2.8274,2.8306,2.8385,2.8417,2.8466,2.8477,2.8496,2.8541,2.8553,2.8645,2.8624,2.8681,2.8788,2.8822,2.8853,2.8989,2.897,2.9008,2.9075,2.9132,2.9147,2.916,2.9206,2.9222,2.9019,2.9019,2.9019,0,2.8331,2.8427,2.8428,2.85,2.8535,2.8511,2.8591,2.8623,2.8689,2.8713,2.8684,2.8815,2.8846,2.8956,2.8989,2.9016,2.9036,2.9002,2.9145,2.9158,2.917,2.9214,2.9231,2.9023,2.9023,2.9022,2.9022,0,2.8494,2.8561,2.8619,2.8681,2.8723,2.8799,2.881,2.8852,2.8846,2.886,2.8952,2.8988,2.9052,2.9078,2.9075,2.9188,2.917,2.9143,2.9091,2.9192,2.9233,2.925,2.9029,2.9027,2.9026,2.9025,0,0,2.8657,2.8715,2.8737,2.8763,2.8813,2.8865,2.8939,2.9,2.9035,2.9081,2.9141,2.923,2.9204,2.924,2.924,2.929,2.9391,2.9257,2.9258,2.9278,2.9515,2.9533,2.9553,2.938,2.9383,2.9386,2.951,0,2.8784,2.8912,2.8914,2.9032,2.9092,2.9069,2.9133,2.9171,2.9185,2.9239,2.9255,2.9317,2.928,2.93,2.9349,2.9369,2.9439,2.936,2.9435,2.9438,2.9422,2.9574,2.9595,2.971,2.9526,2.9529,2.9531,0,2.8951,2.8999,2.9122,2.916,2.9186,2.9243,2.9297,2.9349,2.9391,2.9397,2.9436,2.9427,2.9501,2.9447,2.9548,2.9495,2.9526,2.954,2.9544,2.955,2.9489,2.9582,2.9747,2.9764,2.9556,2.9554,2.9552,0,2.9053,2.915,2.9235,2.9258,2.9306,2.9347,2.9369,2.9406,2.9442,2.949,2.9512,2.9569,2.96,2.9643,2.9649,2.961,2.975,2.9698,2.9757,2.9757,2.9786,2.9784,2.9957,2.981,2.981,2.9809,2.9809,0,2.9194,2.927,2.9281,2.9334,2.9417,2.9417,2.95,2.9519,2.9552,2.9607,2.9592,2.9644,2.965,2.9703,2.9709,2.979,2.9805,2.9812,2.9812,2.9812,2.9811,2.9831,2.9822,2.9814,2.9813,2.9812,2.9811,0,2.9323,2.9334,2.9425,2.9462,2.9473,2.9532,2.9564,2.9613,2.9625,2.9695,2.9711,2.973,2.9792,2.9803,2.9877,2.988,2.9976,2.997,2.9962,2.996,3.0018,3.0011,3.0208,3.0232,3.0071,3.0073,3.0074,0,2.9412,2.9469,2.9511,2.9546,2.9569,2.9627,2.9662,2.9664,2.9701,2.9751,2.9794,2.9854,2.9901,3.0001,3.0022,3.0077,3.007,3.0135,3.0079,3.0076,3.0068,3.0064,3.0068,3.0146,3.0148,3.0149,3.015,0,2.9567,2.9569,2.962,2.9672,2.9714,2.9756,2.9795,2.9825,2.9832,2.9874,2.9936,2.9973,3.0046,3.0105,3.016,3.0182,3.0167,3.0168,3.0184,3.0184,3.0176,3.0178,2.9989,3.0163,3.0162,3.0161,3.016,3.016,2.9677,2.9726,2.9762,2.9818,2.9847,2.9884,2.9931,2.9947,2.9999,3.0057,3.0056,3.0123,3.0161,3.0232,3.0258,3.031,3.0289,3.0313,3.0319,3.0324,3.0328,3.0168,3.032,3.032,3.032,3.0319,3.0319,0,2.9829,2.9851,2.9903,2.9956,3.0,2.9981,3.0023,3.0061,3.012,3.0155,3.0202,3.0271,3.0328,3.0352,3.0407,3.0444,3.0438,3.0458,3.0455,3.0459,3.0345,3.0325,3.0462,3.0462,3.0462,3.0462,3.0462,3.0462,2.9914,2.9993,2.9999,3.0092,3.0113,3.0177,3.0203,3.0235,3.0263,3.0341,3.0387,3.0402,3.0432,3.0489,3.0539,3.0545,3.0565,3.0588,3.059,3.0483,3.0468,3.0454,3.0434,3.0592,3.0593,3.0699,3.07,3.0701]},{"header":{"parameterUnit":"m.s-1","parameterCategory":1,"la1":30.2991,"la2":30.254,"lo1":-89.0895,"lo2":-89.0444,"dy":0.0017,"dx":0.0017,"nx":28,"ny":28,"refTime":"2024-07-17T09:00:00:Z","depth":0,"parameterNumber":3,"parameterNumberName":"V-component_of_WINDS"},"data":[0,0,0,0,0,0,0,0,0,0,0,0,0,0,0,0,0,0,0,0,0,0,0,0,0,0,0,0,0,0,0,0,0,0,0,0,0,0,0,0,0,0,0,0,0,0,0,0,0,0,0,0,0,0,0,0,0,0,0.7431,0.7431,0,0.7416,0.7416,0.7416,0.7375,0.7374,0.7373,0.7372,0.7359,0.736,0.736,0,0,0,0,0,0,0,0,0,0,0,0,0,0.7426,0.7426,0.7431,0.7431,0.7431,0.7416,0.7416,0.7416,0.7375,0.7374,0.7373,0.7372,0.7359,0.736,0.736,0,0,0,0,0,0,0,0,0,0,0,0,0,0.7421,0.7426,0.7431,0.7409,0.7406,0.7416,0.7416,0.7416,0.7375,0.7374,0.7372,0.7371,0.7359,0.736,0.7361,0.7392,0,0,0.7363,0.7363,0,0,0,0,0,0,0,0,0.7422,0.7422,0.7412,0.741,0.7408,0.7396,0.7409,0.7408,0.7375,0.7387,0.7372,0.737,0.7373,0.7372,0.7373,0.7391,0.7391,0.7363,0.7363,0.7364,0.7364,0,0,0,0,0,0,0,0.7422,0.7422,0.7425,0.7412,0.7409,0.7399,0.7397,0.7409,0.7388,0.7386,0.7383,0.7381,0.7371,0.7372,0.7372,0.7391,0.7363,0.7364,0.7364,0.7364,0.7433,0.7434,0,0,0,0,0,0,0.7425,0.7423,0.7426,0.7425,0.7411,0.7401,0.7398,0.7401,0.7387,0.7384,0.7383,0.738,0.7371,0.7371,0.7371,0.7406,0.7364,0.7364,0.7365,0.7431,0.7433,0.7435,0,0,0,0,0,0,0.7425,0.7426,0.7426,0.7423,0.7422,0.7402,0.7406,0.7401,0.7402,0.7385,0.7381,0.7387,0.737,0.737,0.7387,0.7405,0.7365,0.7365,0.743,0.7432,0.7434,0.7477,0,0,0,0,0,0,0.7425,0.7426,0.7438,0.7423,0.7422,0.7442,0.7407,0.7402,0.7403,0.7399,0.7388,0.7385,0.7369,0.7386,0.7387,0.7406,0.7366,0.7428,0.7431,0.7433,0.7474,0.748,0.7486,0,0,0,0,0,0.7425,0.7452,0.7439,0.7439,0.7436,0.7443,0.7442,0.7423,0.7405,0.7416,0.7405,0.7385,0.7403,0.7388,0.7389,0.7408,0.7427,0.743,0.7433,0.7471,0.7479,0.7486,0,0,0,0,0,0,0.7471,0.7449,0.7435,0.7457,0.7452,0.7436,0.745,0.7432,0.7433,0.7429,0.7405,0.7403,0.7423,0.7417,0.74,0.7437,0.7411,0.7415,0.744,0.7447,0.7453,0.7454,0.7367,0,0,0,0,0,0.7483,0.7489,0.7471,0.7492,0.749,0.747,0.7473,0.7457,0.7452,0.745,0.744,0.7435,0.7439,0.7443,0.7446,0.7472,0.7469,0.7486,0.7492,0.7497,0.75,0.7513,0.752,0.7445,0.7445,0.7445,0,0,0.7509,0.7498,0.7504,0.7501,0.7495,0.7502,0.7469,0.7479,0.7484,0.7451,0.7465,0.7458,0.7451,0.7472,0.7481,0.7468,0.752,0.7501,0.7505,0.7506,0.7516,0.7524,0.753,0.7447,0.7446,0.7446,0,0,0.756,0.7552,0.7569,0.7563,0.7554,0.754,0.7544,0.753,0.7524,0.7537,0.7513,0.7519,0.7527,0.7523,0.7522,0.7569,0.755,0.757,0.7602,0.7614,0.762,0.7625,0.7641,0.7647,0.7574,0.7574,0.7574,0,0.7593,0.7603,0.758,0.759,0.7589,0.7558,0.7574,0.757,0.7564,0.7564,0.7549,0.7557,0.7551,0.757,0.7581,0.7581,0.7585,0.7572,0.7621,0.7626,0.763,0.7645,0.7651,0.7576,0.7576,0.7576,0.7576,0,0.7644,0.7651,0.7665,0.7657,0.7658,0.7671,0.765,0.7654,0.7638,0.7626,0.764,0.7631,0.7631,0.7634,0.762,0.7651,0.7643,0.7625,0.7599,0.764,0.7654,0.7659,0.758,0.7579,0.7578,0.7578,0,0,0.7724,0.7702,0.7707,0.7703,0.769,0.7695,0.7706,0.7705,0.7708,0.7704,0.7713,0.7719,0.7702,0.7701,0.7686,0.7696,0.7733,0.7676,0.7676,0.7687,0.7765,0.7779,0.7786,0.772,0.7721,0.7722,0.7765,0,0.7772,0.7789,0.7768,0.779,0.7796,0.7766,0.7776,0.7769,0.7758,0.7761,0.7749,0.7753,0.773,0.7729,0.7738,0.7726,0.7748,0.7723,0.7729,0.7729,0.7731,0.7793,0.7808,0.7849,0.7771,0.7772,0.7772,0,0.783,0.7826,0.7849,0.7832,0.7834,0.7843,0.7839,0.7843,0.7834,0.7825,0.7823,0.7804,0.7814,0.7788,0.7802,0.7785,0.7786,0.778,0.7781,0.7781,0.7753,0.7794,0.7862,0.7868,0.7781,0.778,0.7779,0,0.7885,0.7886,0.7899,0.7896,0.7878,0.7885,0.7878,0.7868,0.7867,0.7864,0.7864,0.7863,0.7862,0.7861,0.7842,0.7826,0.7858,0.7831,0.7851,0.7851,0.7859,0.7859,0.7928,0.786,0.786,0.786,0.786,0,0.794,0.7955,0.7924,0.7932,0.7947,0.7922,0.7939,0.7928,0.7919,0.7925,0.7899,0.7905,0.788,0.7883,0.7869,0.7881,0.7882,0.7875,0.7871,0.7877,0.7878,0.7877,0.7874,0.7862,0.7861,0.7861,0.7861,0,0.8005,0.7984,0.7997,0.7977,0.7973,0.7985,0.7969,0.7975,0.7962,0.7969,0.7969,0.7948,0.7951,0.7931,0.7931,0.7921,0.7941,0.7932,0.7943,0.794,0.7961,0.7959,0.8032,0.804,0.7968,0.7968,0.7969,0,0.8041,0.8052,0.8033,0.8034,0.8027,0.803,0.8029,0.8005,0.8006,0.7995,0.8003,0.8003,0.8002,0.8007,0.7992,0.7991,0.7982,0.8007,0.7981,0.7987,0.7981,0.7981,0.7981,0.8013,0.8013,0.8014,0.8015,0,0.8108,0.8097,0.8096,0.8091,0.8091,0.8086,0.808,0.8083,0.8057,0.8058,0.8059,0.8058,0.8056,0.8056,0.8052,0.8045,0.8026,0.8023,0.8027,0.8034,0.804,0.8036,0.7958,0.8021,0.8021,0.802,0.802,0.802,0.8159,0.8166,0.8153,0.8153,0.8145,0.814,0.8145,0.8131,0.8131,0.8127,0.8113,0.8116,0.8106,0.8098,0.8092,0.8095,0.8083,0.8089,0.8091,0.8093,0.8096,0.8039,0.8094,0.8094,0.8094,0.8093,0.8093,0,0.8223,0.8213,0.8213,0.8204,0.8204,0.8184,0.8176,0.8177,0.818,0.8172,0.817,0.8171,0.8171,0.8155,0.8153,0.8158,0.8148,0.8158,0.8157,0.8156,0.8108,0.8104,0.8165,0.8165,0.8165,0.8165,0.8165,0.8165,0.8257,0.8267,0.8255,0.8261,0.8251,0.8253,0.825,0.8245,0.8238,0.8239,0.8238,0.8227,0.8216,0.8212,0.821,0.8206,0.8206,0.8218,0.8211,0.8166,0.8159,0.8153,0.8149,0.8219,0.8219,0.8258,0.8259,0.8259]}]]